Flag for U.S.A. Weather past 2 weeks in Orlando, Florida, U.S.A.

Now
67 °F

Low clouds.


Feels Like: 67 °F
Forecast: 65 / 81 °F
Wind: 3 mph from North

Location: Orlando Executive Airport

Current Time: Mar 2, 2015 at 10:57:28 AM

Latest Report: Mar 2, 2015 at 9:53 AM


Visibility: 7 mi

Pressure: 30.32 "Hg

Humidity: 90%

Dew point: 64 °F

Location of OrlandoLocation

Historic Weather in Orlando — Graph

°F

Orlando temperature yesterday

Maximum temperature yesterday: 81 °F (at 1:53 PM)
Minimum temperature yesterday: 64 °F (at 2:53 AM)
Average temperature yesterday: 71 °F

Past Weeks' High & Low Weather Summary

 TemperatureHumidityPressure
High82 °F (Feb 23, 2:53 PM)100% (Mar 2, 2:53 AM)30.47 "Hg (Mar 2, 2:53 AM)
Low34 °F (Feb 20, 6:53 AM)21% (Feb 19, 3:53 PM)29.68 "Hg (Feb 26, 3:53 AM)
Average62 °F71%30.15 "Hg
* Reported Feb 15 9:53 AM — Mar 2 9:00 AM, Orlando, Weather by CustomWeather, © 2015

Note: Actual official high and low records may vary slightly from our data, if they occured in-between our weather recording intervals... More about our weather records

Advertising

Orlando weather history for previous 24 hours

 ConditionsComfort  
Time TempWeatherWind HumidityBarometerVisibility
9:00 AM
Mon, Mar 2
64 °FFog.3 mph97%30.32 "Hg1 mi
7:53 AM64 °FFog.3 mph100%30.32 "Hg4 mi
6:53 AM63 °FFog.5 mph100%30.31 "Hg1 mi
5:53 AM64 °FFog.5 mph97%30.31 "Hg0 mi
4:53 AM64 °FFog.6 mph97%30.30 "Hg0 mi
3:53 AM64 °FFog.3 mph97%30.29 "Hg0 mi
2:53 AM64 °FFog.3 mph100%30.29 "Hg0 mi
1:53 AM65 °FFog.5 mph97%30.31 "Hg1 mi
12:53 AM66 °FFog.7 mph96%30.32 "Hg1 mi
11:53 PM
Sun, Mar 1
68 °FFog.6 mph93%30.33 "Hg1 mi
10:53 PM68 °FFog.3 mph93%30.34 "Hg1 mi
9:53 PM68 °FClear.5 mph93%30.34 "Hg10 mi
8:53 PM70 °FClear.6 mph87%30.32 "Hg10 mi
7:53 PM72 °FClear.8 mph84%30.31 "Hg10 mi
6:53 PM73 °FClear.8 mph81%30.30 "Hg10 mi
5:53 PM76 °FPassing clouds.8 mph74%30.29 "Hg10 mi
4:53 PM78 °FBroken clouds.8 mph69%30.29 "Hg10 mi
3:53 PM78 °FPartly sunny.10 mph71%30.29 "Hg10 mi
2:53 PM75 °FLight rain. Cloudy.9 mph79%30.30 "Hg9 mi
1:53 PM81 °FPartly sunny.10 mph65%30.31 "Hg10 mi
1:01 PM79 °FBroken clouds.12 mph72%30.32 "Hg10 mi
11:53 AM76 °FCloudy.10 mph77%30.37 "Hg10 mi
10:53 AM74 °FMostly cloudy.10 mph82%30.39 "Hg10 mi
Weather by CustomWeather, © 2015

See weather overviewHow to use our weather pages